Wetbulb
57.74 57.95 58.62 59.14 58.99 59.02 59.19 59.13 59.12 59.27 59.62 59.86 60.09 60.05 60.07 60.04 59.14 56.59 50.84 56.15 58.58 63.87 64.10 53.99 52.78 52.57 50.61 47.84 48.88 49.13 43.15 40.31 43.53 45.24 51.29 56.35 55.44 57.76 59.09 58.03 61.39 62.97 65.12 65.75 70.30
57.94 58.06 58.81 59.04 59.05 58.94 58.89 58.86 58.93 59.19 59.36 59.70 59.89 59.81 59.78 59.62 54.14 53.17 60.86 65.68 64.71 64.74 51.65 50.66 50.97 52.28 46.81 46.40 47.32 46.15 42.09 44.26 48.74 48.35 52.37 55.72 56.19 57.62 56.95 60.39 60.89 64.32 67.35 69.27 69.05
57.94 58.36 58.69 58.83 58.93 58.45 58.46 58.66 58.73 59.30 59.53 59.63 59.44 59.44 59.29 58.59 52.67 54.49 66.59 66.79 66.36 63.12 53.17 52.79 52.08 51.28 44.73 44.67 45.37 43.80 44.21 48.06 48.33 49.57 56.02 56.46 55.52 57.03 58.94 58.40 61.70 62.85 62.83 67.27 67.32
57.96 58.13 58.65 58.59 58.34 58.32 58.42 58.56 59.03 59.75 59.55 59.21 59.06 59.29 59.60 55.61 43.39 52.24 68.52 67.54 67.51 57.57 52.93 52.44 51.50 47.23 44.41 44.51 46.14 42.77 48.16 47.90 48.39 49.30 57.13 55.94 56.54 53.43 55.86 60.13 64.01 63.56 63.72 62.28 65.02
57.84 57.95 58.25 58.03 58.04 57.95 58.17 58.54 58.82 58.88 58.75 58.60 59.21 59.62 54.52 48.57 51.06 56.38 69.64 67.84 59.84 53.72 51.21 50.91 49.80 47.03 45.77 44.85 46.38 44.94 48.80 49.54 49.80 48.87 49.17 53.19 50.17 49.73 53.07 62.50 62.58 60.96 60.22 57.71 58.35
57.45 57.56 57.48 57.55 57.68 57.68 57.60 57.40 57.33 57.66 58.21 58.64 59.34 59.88 53.36 46.28 55.60 56.40 58.72 57.91 56.07 53.18 50.98 50.86 51.30 51.63 45.64 45.48 44.05 47.25 48.00 47.48 48.37 49.64 47.52 49.98 49.64 50.18 53.11 61.32 60.62 59.39 57.36 58.68 59.14
57.22 57.12 57.19 57.20 57.43 57.53 57.52 57.03 56.59 57.37 58.22 59.12 60.07 58.71 51.64 49.82 57.74 54.22 55.46 53.35 54.32 56.08 52.80 52.16 51.16 49.76 46.72 46.18 47.20 48.57 44.22 45.79 46.41 46.41 47.17 48.78 46.50 48.17 51.32 59.20 58.09 57.71 57.91 58.87 59.62
56.92 56.48 56.84 57.11 57.40 57.55 57.62 57.20 56.96 57.58 58.63 59.71 61.03 54.69 47.48 56.32 56.12 55.48 53.16 53.14 53.51 52.89 52.26 52.71 51.20 48.43 45.97 47.51 47.68 45.28 43.51 40.01 44.07 46.72 47.74 47.74 41.55 49.19 51.23 52.29 53.65 54.82 58.42 58.62 59.29
56.52 56.05 56.44 56.85 57.16 57.47 57.16 56.67 57.35 58.62 59.42 60.31 54.05 50.02 48.49 59.42 52.30 54.58 53.73 53.05 52.71 52.76 52.23 54.89 49.75 46.23 46.86 42.51 40.89 41.46 38.14 39.83 43.08 46.16 46.81 44.22 41.62 49.71 50.81 49.91 49.75 51.92 57.91 58.22 58.50
56.31 55.87 55.81 56.32 56.88 56.68 55.98 55.85 57.28 56.95 58.70 60.66 57.71 49.29 52.47 53.00 52.22 55.43 54.56 54.37 51.77 51.08 51.41 49.41 45.63 42.17 40.58 40.13 35.88 39.23 38.14 40.58 40.82 45.60 45.43 43.22 43.08 48.14 49.76 48.94 48.07 48.23 56.90 57.23 58.22
56.36 55.76 55.69 55.91 56.22 55.64 52.64 53.51 52.88 50.82 50.87 49.01 51.14 51.60 53.77 54.53 54.58 53.38 55.23 53.09 51.08 49.53 44.51 46.58 42.38 40.11 42.21 42.82 43.92 42.79 41.57 40.90 43.78 47.55 43.52 42.07 44.06 47.56 48.25 48.24 47.57 47.99 55.17 56.74 57.81
56.06 55.79 55.68 55.73 55.84 55.54 51.90 51.02 55.14 52.10 48.03 53.51 53.75 53.78 56.11 55.12 51.47 53.61 55.11 48.87 49.03 45.18 47.03 44.63 41.83 46.78 46.68 46.55 44.94 43.52 40.41 40.97 44.53 48.14 46.11 44.63 43.96 47.74 49.86 50.21 49.46 49.55 52.77 55.86 57.37
55.19 55.15 55.35 55.55 55.10 52.05 52.40 56.12 59.37 55.43 47.60 53.28 55.38 54.39 54.44 52.81 51.16 52.23 52.57 50.63 48.00 45.97 45.36 42.98 46.05 49.67 48.16 45.33 45.26 42.21 42.48 42.60 43.42 46.50 46.45 45.02 42.48 46.75 50.57 52.33 52.93 52.79 54.28 57.25 57.88
54.63 54.80 54.88 54.08 52.52 52.97 53.43 58.43 57.37 56.08 44.96 51.31 53.12 54.43 53.80 52.45 51.41 54.95 55.02 51.64 49.13 46.65 47.39 44.96 49.07 48.55 46.31 46.27 46.07 41.28 46.89 46.61 45.36 41.57 36.88 44.03 34.38 42.80 46.49 49.27 51.11 52.19 54.32 56.34 57.61
54.21 54.89 54.54 52.87 47.78 50.05 55.45 55.12 54.60 56.42 38.82 54.02 50.05 54.36 53.07 50.63 51.42 52.19 54.86 52.23 48.79 48.12 47.99 45.99 47.34 46.85 45.70 47.24 48.34 45.08 48.37 45.54 45.11 39.97 37.01 41.02 37.61 40.48 46.35 45.99 48.43 51.14 55.24 56.54 57.68
54.00 54.49 53.53 53.92 51.45 52.78 55.78 54.68 55.02 46.10 39.90 48.86 50.89 49.98 48.26 49.46 50.56 52.24 52.83 54.05 52.65 49.56 49.47 48.48 52.19 48.60 47.76 50.47 49.68 49.25 45.35 44.46 42.35 37.70 34.07 38.92 38.83 37.64 41.81 46.77 50.55 53.58 55.21 56.59 57.50
53.81 53.81 51.59 57.25 53.02 57.25 56.25 53.17 43.23 39.68 52.73 48.53 46.83 48.56 47.09 47.65 49.58 50.34 49.52 47.42 44.63 41.25 42.11 47.85 48.42 50.35 51.22 47.34 48.54 45.78 40.81 33.97 33.50 32.34 33.44 40.94 39.83 40.01 46.28 49.33 51.23 52.74 54.19 56.07 56.59
52.70 51.73 52.99 58.05 57.15 57.35 53.94 47.78 37.37 48.30 49.39 52.07 49.87 48.53 46.54 50.69 48.84 51.31 48.33 45.33 50.11 47.09 42.61 40.98 40.28 48.16 51.46 47.76 43.51 42.68 40.98 34.49 29.53 30.68 34.16 42.40 36.05 40.32 47.60 50.17 53.61 54.22 53.41 55.44 55.23
51.25 51.46 54.24 57.85 58.86 55.85 50.13 41.04 42.58 49.33 51.78 50.28 49.17 46.34 47.14 50.72 49.73 49.15 47.70 48.03 49.54 48.44 42.21 40.46 42.46 50.91 51.40 50.22 47.22 43.16 39.00 42.08 37.16 35.88 33.00 36.94 41.55 47.02 49.06 47.48 49.55 49.02 48.40 47.35 48.58
47.69 51.55 53.92 57.00 58.29 53.73 46.35 42.76 48.11 53.41 52.79 51.18 45.63 49.05 44.80 47.81 47.81 47.15 47.89 51.02 50.70 50.87 48.71 44.99 39.02 48.35 50.94 51.69 49.91 45.87 46.42 38.59 36.71 29.63 29.42 35.65 37.58 38.32 42.16 43.43 45.56 46.39 45.70 45.87 46.77
50.14 48.80 55.08 57.30 55.79 48.63 41.07 43.97 49.91 54.00 52.79 50.13 48.12 47.12 47.28 47.48 47.49 45.92 47.96 50.36 51.81 50.97 50.73 45.83 42.55 44.70 48.34 45.51 44.13 44.02 41.63 42.13 40.42 40.00 32.43 29.70 34.42 43.36 43.47 46.09 44.11 44.13 44.37 44.62 44.72
45.65 42.17 56.45 55.38 46.19 44.15 41.82 47.78 51.47 53.69 53.15 52.45 50.84 49.78 48.15 48.60 46.68 46.41 47.84 49.84 53.47 51.72 47.38 47.31 42.41 38.40 42.65 48.55 50.38 47.39 43.49 41.09 35.21 35.41 36.82 34.55 33.04 43.81 43.14 44.03 44.30 45.15 45.39 44.70 44.81
41.13 43.90 53.33 51.75 40.22 40.92 46.77 51.59 52.51 51.54 51.13 51.09 50.13 50.57 49.83 46.64 42.48 47.55 48.81 52.42 53.10 51.42 46.59 44.94 38.63 33.36 36.57 40.34 45.90 43.83 46.23 44.93 42.31 37.80 35.41 32.70 34.07 47.04 47.10 46.32 46.85 44.52 45.23 44.94 44.48
44.22 43.59 47.82 48.26 46.29 44.00 43.69 45.32 46.11 52.02 51.24 50.55 49.13 49.45 46.93 45.07 46.24 45.55 48.21 52.28 53.42 50.99 54.16 49.20 40.63 37.01 32.60 37.71 42.13 41.40 44.62 45.67 42.64 34.42 37.66 37.55 39.10 43.44 44.71 43.08 45.30 44.95 43.41 43.80 43.35
46.08 44.77 45.57 40.87 43.83 43.76 43.26 44.69 44.65 45.53 49.65 49.99 47.28 48.29 46.35 42.46 44.64 44.64 48.63 49.81 51.13 52.69 48.60 45.53 39.53 41.67 43.91 46.38 46.06 44.48 44.34 44.74 41.92 41.52 37.37 39.51 40.66 41.38 41.66 43.09 43.23 44.87 45.72 43.85 43.23
45.73 45.45 47.28 44.02 43.66 43.59 43.48 42.65 44.61 48.06 49.50 46.20 45.40 48.52 48.11 43.77 44.76 43.06 46.43 45.20 45.47 48.23 45.56 45.71 39.94 42.21 41.44 46.18 45.38 43.04 44.27 43.94 43.26 43.75 41.50 40.54 38.55 42.62 44.58 44.40 43.80 44.09 44.15 42.99 42.91
49.56 50.19 46.47 43.90 43.30 41.46 41.32 45.02 46.89 47.83 48.47 49.51 47.92 46.21 46.68 48.67 49.72 48.04 47.09 47.00 46.55 44.48 42.49 41.51 39.75 37.54 34.83 43.29 42.48 35.26 41.24 42.35 42.47 43.36 41.36 35.80 38.56 43.08 43.43 43.92 42.80 43.01 44.16 43.08 42.34
MSLP
1018.21 1018.04 1017.83 1017.68 1017.56 1017.39 1017.20 1017.01 1016.82 1016.65 1016.50 1016.29 1016.05 1015.67 1015.28 1014.90 1014.17 1014.05 1013.16 1010.99 1010.82 1010.44 1010.58 1010.42 1010.06 1010.19 1010.25 1010.40 1010.04 1010.36 1011.57 1012.08 1011.62 1011.17 1010.22 1009.90 1009.93 1010.12 1010.66 1011.09 1011.30 1011.37 1011.39 1012.13 1013.48
1018.16 1018.01 1017.82 1017.61 1017.43 1017.23 1017.04 1016.86 1016.66 1016.42 1016.23 1016.10 1015.84 1015.46 1015.20 1014.90 1014.37 1012.90 1010.30 1010.16 1010.30 1010.30 1010.45 1010.43 1010.24 1010.42 1010.38 1010.10 1009.75 1010.13 1011.03 1010.65 1009.79 1009.73 1009.52 1009.42 1009.39 1009.53 1010.47 1010.75 1011.21 1010.93 1011.62 1012.66 1013.66
1018.01 1017.81 1017.64 1017.47 1017.28 1017.07 1016.86 1016.64 1016.40 1016.21 1016.05 1015.87 1015.60 1015.30 1015.07 1014.84 1013.98 1011.12 1009.44 1009.76 1010.11 1010.33 1010.44 1010.38 1010.56 1010.55 1010.36 1009.99 1009.80 1009.83 1009.92 1008.86 1008.96 1008.68 1008.52 1008.88 1009.18 1009.53 1010.51 1010.57 1010.09 1010.53 1011.49 1012.63 1013.44
1017.91 1017.66 1017.44 1017.26 1017.07 1016.87 1016.66 1016.42 1016.18 1015.99 1015.86 1015.74 1015.45 1015.10 1014.73 1014.49 1012.99 1009.97 1009.48 1009.65 1010.13 1010.35 1010.34 1010.30 1010.52 1010.59 1010.64 1010.42 1009.54 1009.79 1008.82 1008.44 1008.14 1008.20 1008.37 1008.49 1008.37 1009.38 1009.69 1009.82 1009.61 1009.98 1010.50 1012.15 1013.26
1017.84 1017.54 1017.31 1017.12 1016.95 1016.76 1016.54 1016.26 1016.00 1015.83 1015.75 1015.61 1015.26 1014.93 1014.42 1013.79 1011.79 1009.20 1009.51 1009.90 1010.35 1010.38 1010.25 1010.51 1010.59 1010.68 1010.66 1010.14 1009.87 1009.61 1008.30 1007.40 1007.24 1007.12 1007.80 1007.76 1008.43 1008.43 1009.12 1009.44 1009.66 1009.87 1010.53 1011.55 1012.95
1017.78 1017.46 1017.19 1016.99 1016.79 1016.57 1016.32 1016.04 1015.77 1015.63 1015.55 1015.36 1015.05 1014.85 1014.52 1012.89 1009.61 1009.09 1009.46 1009.97 1010.07 1010.24 1010.17 1010.31 1010.16 1009.98 1010.27 1009.91 1009.76 1008.97 1008.11 1007.37 1007.13 1006.85 1007.39 1007.73 1008.66 1008.45 1009.32 1009.19 1009.51 1009.72 1010.95 1011.64 1012.48
1017.58 1017.26 1017.01 1016.79 1016.52 1016.25 1015.94 1015.63 1015.35 1015.25 1015.21 1015.04 1014.80 1014.61 1014.02 1011.24 1009.39 1009.16 1009.65 1009.24 1009.06 1009.41 1009.74 1009.31 1009.41 1009.40 1009.74 1009.64 1009.16 1008.85 1008.40 1007.75 1007.32 1007.11 1007.43 1007.97 1009.05 1009.02 1008.98 1009.23 1009.72 1010.36 1011.25 1011.89 1012.46
1017.39 1017.09 1016.86 1016.58 1016.23 1015.89 1015.56 1015.23 1014.92 1014.87 1014.84 1014.72 1014.56 1014.35 1012.78 1009.66 1009.65 1009.62 1009.21 1009.09 1008.77 1008.76 1008.99 1008.47 1008.62 1008.99 1009.48 1009.60 1009.30 1009.25 1008.89 1009.01 1007.70 1007.68 1007.40 1007.67 1008.83 1008.94 1008.91 1009.47 1010.20 1010.88 1011.60 1012.13 1012.82
1017.21 1016.86 1016.56 1016.25 1015.90 1015.59 1015.15 1014.69 1014.38 1014.36 1014.51 1014.55 1014.56 1013.92 1011.97 1009.48 1009.17 1008.51 1008.60 1008.82 1008.63 1008.34 1008.34 1008.31 1008.59 1009.50 1009.78 1010.57 1010.69 1010.54 1010.50 1009.97 1008.86 1007.81 1008.02 1008.42 1008.98 1008.93 1009.12 1009.48 1010.13 1010.71 1011.44 1012.09 1013.12
1017.13 1016.76 1016.38 1016.00 1015.64 1015.29 1014.65 1014.17 1013.87 1013.94 1014.27 1014.23 1013.69 1013.66 1011.20 1009.51 1008.48 1008.17 1008.00 1008.09 1008.39 1008.62 1008.84 1008.87 1009.66 1010.28 1010.78 1011.25 1011.82 1011.34 1011.28 1010.32 1009.49 1007.83 1007.94 1008.24 1008.58 1008.94 1009.15 1009.46 1009.84 1010.59 1011.57 1012.20 1012.83
1016.99 1016.56 1016.19 1015.81 1015.45 1015.12 1014.22 1013.73 1014.15 1014.05 1013.51 1012.78 1012.16 1011.44 1010.14 1008.90 1008.27 1008.19 1007.99 1008.28 1008.56 1009.13 1009.74 1009.77 1010.59 1010.97 1010.65 1010.81 1010.79 1010.99 1010.86 1010.41 1009.17 1008.35 1008.43 1008.86 1009.56 1009.68 1009.75 1010.25 1010.52 1011.04 1011.75 1012.45 1013.40
1016.85 1016.31 1015.90 1015.55 1015.24 1015.05 1014.93 1014.22 1012.93 1012.39 1012.09 1011.15 1010.65 1010.48 1009.45 1008.96 1008.44 1008.16 1008.05 1008.75 1008.91 1009.40 1009.75 1010.39 1010.39 1009.61 1009.88 1010.17 1010.37 1010.42 1010.38 1010.34 1009.76 1009.17 1009.21 1009.88 1010.51 1010.67 1011.27 1010.91 1010.60 1010.92 1012.43 1013.16 1013.90
1016.77 1016.12 1015.53 1015.03 1014.97 1015.01 1014.33 1012.82 1011.05 1011.52 1011.85 1010.11 1009.46 1009.14 1008.63 1008.20 1008.20 1007.94 1008.12 1008.37 1008.81 1009.28 1009.66 1010.10 1009.54 1008.93 1009.39 1009.49 1009.85 1010.45 1010.57 1010.79 1010.82 1010.39 1010.23 1010.90 1012.02 1012.51 1012.72 1012.49 1012.06 1012.24 1012.14 1012.87 1013.62
1016.74 1016.06 1015.37 1014.60 1014.47 1014.34 1013.34 1011.46 1010.99 1011.14 1011.69 1010.25 1008.81 1007.90 1007.94 1007.92 1008.09 1007.66 1007.59 1008.16 1008.78 1009.35 1009.35 1009.61 1009.25 1009.08 1009.22 1009.62 1009.98 1010.43 1010.50 1010.75 1011.24 1011.91 1012.56 1012.75 1014.45 1014.47 1014.21 1013.73 1013.62 1013.51 1013.57 1013.93 1014.79
1016.56 1015.99 1015.31 1015.08 1014.63 1014.02 1012.26 1011.32 1010.92 1011.11 1011.33 1009.11 1008.09 1006.92 1007.43 1008.20 1008.11 1007.77 1007.39 1007.91 1008.68 1009.21 1009.79 1009.80 1009.41 1009.05 1009.30 1009.65 1009.71 1010.45 1010.53 1011.25 1011.86 1012.71 1013.56 1014.27 1014.99 1015.08 1014.86 1014.78 1014.72 1015.17 1014.82 1016.04 1016.03
1016.13 1015.69 1015.40 1014.74 1014.63 1012.81 1011.81 1011.35 1011.23 1012.10 1010.61 1009.02 1007.80 1007.51 1007.99 1008.16 1008.19 1007.93 1007.99 1008.18 1008.67 1009.31 1009.69 1009.88 1009.00 1008.94 1009.35 1009.47 1009.95 1010.33 1011.13 1012.19 1013.24 1014.11 1015.16 1015.26 1015.52 1016.36 1015.73 1015.73 1015.30 1016.34 1016.24 1016.94 1017.39
1015.77 1014.97 1015.11 1014.02 1013.27 1012.11 1012.01 1012.41 1012.77 1012.11 1009.94 1009.22 1008.40 1008.17 1008.27 1008.55 1008.41 1008.68 1008.84 1009.13 1009.71 1010.58 1010.95 1010.66 1010.42 1009.84 1009.79 1009.91 1010.19 1011.15 1012.79 1014.33 1015.46 1016.08 1016.33 1015.76 1016.08 1016.40 1015.71 1015.63 1015.78 1016.85 1017.19 1017.58 1018.38
1015.55 1014.46 1013.93 1012.95 1012.23 1012.56 1013.08 1013.52 1013.26 1011.80 1010.29 1009.31 1008.96 1008.60 1009.04 1008.64 1008.99 1009.08 1009.40 1009.93 1010.65 1011.25 1012.03 1011.97 1011.51 1011.11 1010.80 1010.70 1011.16 1011.80 1013.41 1015.12 1016.32 1017.28 1016.91 1016.20 1016.70 1016.43 1015.88 1016.04 1016.20 1016.55 1017.72 1018.29 1019.35
1015.35 1014.12 1013.72 1012.09 1011.94 1012.71 1013.92 1014.50 1013.27 1011.79 1010.48 1009.90 1009.34 1009.62 1009.77 1009.55 1009.58 1009.85 1010.74 1011.48 1012.04 1012.15 1012.79 1013.10 1012.50 1011.53 1011.28 1011.30 1011.64 1012.27 1013.46 1014.53 1016.08 1017.38 1017.62 1017.60 1017.28 1016.62 1016.25 1016.34 1016.90 1017.72 1018.30 1019.13 1019.83
1016.79 1015.55 1013.76 1011.51 1011.83 1013.40 1014.82 1014.61 1013.05 1011.60 1010.50 1010.16 1010.52 1010.76 1011.16 1011.05 1010.85 1010.84 1011.39 1012.46 1012.66 1012.80 1012.84 1014.12 1013.88 1013.12 1012.29 1011.86 1012.23 1012.73 1013.71 1015.08 1017.01 1018.51 1018.84 1018.33 1017.97 1017.47 1017.32 1017.64 1017.76 1018.19 1018.99 1019.95 1020.50
1016.94 1015.91 1012.77 1012.00 1012.17 1014.08 1015.36 1014.55 1012.95 1011.38 1010.55 1010.69 1011.07 1011.39 1011.80 1011.92 1011.93 1012.14 1012.72 1013.09 1012.95 1013.39 1013.63 1014.52 1014.99 1014.55 1013.64 1013.42 1013.46 1013.52 1014.44 1015.95 1017.20 1018.32 1019.21 1019.08 1018.60 1017.57 1017.73 1017.84 1018.24 1019.00 1019.91 1020.39 1021.05
1019.04 1017.08 1012.78 1012.37 1013.67 1014.94 1015.21 1013.92 1012.67 1011.62 1010.77 1010.80 1011.05 1011.71 1012.27 1012.43 1012.68 1012.76 1013.14 1013.10 1013.26 1013.62 1014.49 1015.30 1015.93 1016.13 1015.45 1014.35 1013.72 1014.12 1014.98 1016.12 1017.89 1018.83 1018.98 1018.93 1019.11 1018.46 1018.48 1018.72 1019.17 1020.03 1020.66 1021.37 1021.91
1021.03 1018.30 1013.95 1013.51 1015.44 1015.86 1015.01 1014.00 1013.02 1011.84 1011.51 1011.58 1012.06 1012.42 1012.79 1013.18 1013.41 1013.25 1013.34 1013.29 1013.59 1014.26 1015.04 1015.67 1017.10 1017.40 1016.41 1015.67 1014.92 1015.20 1015.33 1016.11 1017.22 1018.33 1018.88 1019.27 1019.27 1018.77 1018.68 1018.90 1019.56 1020.72 1021.28 1021.53 1022.34
1021.47 1019.58 1016.92 1016.15 1016.53 1016.39 1015.92 1015.03 1013.83 1012.57 1012.22 1012.20 1012.71 1012.93 1013.54 1013.88 1013.89 1014.07 1013.99 1014.24 1014.41 1014.89 1015.36 1016.02 1017.60 1018.21 1018.22 1017.57 1017.04 1016.50 1016.16 1016.11 1016.89 1017.96 1018.28 1018.56 1019.11 1019.21 1019.49 1020.10 1020.68 1021.40 1022.31 1022.35 1022.87
1021.63 1020.45 1019.28 1019.18 1017.85 1017.32 1016.35 1015.60 1014.76 1013.98 1013.36 1013.32 1013.85 1014.36 1014.63 1015.21 1015.10 1015.27 1014.85 1015.00 1015.30 1015.75 1016.05 1017.00 1018.19 1018.28 1018.10 1017.66 1017.17 1016.81 1016.51 1016.34 1016.53 1016.80 1017.61 1018.04 1019.17 1020.00 1020.29 1020.94 1021.58 1021.95 1022.55 1022.80 1023.28
1021.84 1021.11 1020.33 1019.61 1018.82 1017.94 1017.08 1016.24 1015.45 1014.77 1014.38 1014.99 1015.15 1015.32 1015.20 1015.97 1016.22 1016.17 1015.91 1015.83 1015.83 1016.18 1016.79 1017.67 1018.56 1018.81 1018.54 1017.80 1017.45 1017.04 1016.52 1016.65 1017.04 1017.29 1018.09 1018.63 1019.93 1020.50 1021.12 1021.41 1021.87 1022.30 1022.62 1022.99 1023.25
1021.99 1021.13 1021.01 1020.39 1019.57 1018.91 1018.32 1017.20 1016.18 1015.21 1015.61 1015.56 1015.63 1015.69 1015.81 1016.13 1016.16 1016.12 1016.14 1016.14 1016.26 1016.60 1017.46 1018.38 1019.35 1019.99 1019.67 1018.79 1018.09 1017.96 1017.80 1017.69 1018.44 1018.64 1019.22 1019.93 1020.84 1021.37 1022.00 1022.41 1022.70 1022.86 1023.12 1023.78 1024.34
Wind_Speed
6 7 7 7 7 7 7 8 8 9 8 9 10 11 11 12 14 2 5 11 6 6 3 6 3 4 3 4 4 4 4 4 7 2 8 3 5 5 8 5 1 7 7 15 22
6 6 7 7 7 8 8 9 9 9 9 9 10 11 10 11 3 6 11 8 8 5 3 2 6 7 2 4 2 4 4 8 8 4 5 6 7 8 5 10 3 11 13 22 23
7 7 7 7 7 8 9 9 10 10 9 9 10 11 10 6 4 7 6 11 8 5 2 2 3 1 2 1 3 1 6 6 2 5 10 8 2 5 8 8 18 21 23 26 23
8 7 7 8 8 9 10 10 10 10 9 9 10 11 11 1 0 5 7 8 6 4 1 3 5 4 6 6 3 3 13 8 5 4 7 9 4 10 10 9 15 17 20 22 21
7 8 8 8 9 10 10 11 11 10 9 9 10 10 2 4 9 7 7 3 2 2 2 2 4 1 3 3 4 6 18 12 7 7 8 9 4 5 7 14 11 10 10 15 19
8 8 8 8 9 10 10 11 11 10 9 9 10 9 2 3 6 6 8 4 6 4 2 5 7 9 3 4 2 3 9 4 7 3 4 13 5 5 3 13 14 13 16 18 22
9 9 9 9 9 10 11 11 11 10 8 8 8 3 2 14 4 5 6 7 5 5 2 6 4 6 3 8 3 6 4 4 2 2 4 10 3 9 8 14 14 10 16 19 22
10 9 9 9 9 10 11 12 12 10 8 8 3 1 8 7 4 5 6 8 6 8 6 7 1 2 1 4 9 6 5 6 6 0 3 7 6 5 7 10 10 12 16 18 18
12 10 9 9 9 10 12 13 13 11 5 4 2 2 11 11 2 9 6 6 4 4 5 5 3 1 6 4 7 8 4 5 12 7 6 5 6 7 9 11 11 11 20 18 15
14 12 10 9 9 11 15 9 3 8 4 4 3 3 6 5 4 3 5 2 3 5 8 4 6 3 5 6 4 7 4 6 8 11 8 6 7 7 10 10 12 9 15 15 19
16 13 11 9 8 9 8 4 5 3 0 8 6 5 6 6 1 3 4 1 3 4 3 5 4 6 12 8 6 3 5 6 6 5 5 2 6 8 4 2 6 7 15 13 14
19 17 13 10 8 5 1 2 7 5 7 9 14 8 12 6 3 5 6 4 3 6 2 5 8 15 7 10 6 3 2 6 5 10 5 3 2 2 8 6 7 6 7 13 15
20 18 16 13 6 3 3 7 7 5 1 9 6 6 6 5 3 4 6 3 4 4 4 6 7 2 4 5 7 4 5 4 2 6 7 8 6 12 7 13 15 10 14 16 18
22 19 17 22 2 4 5 8 8 5 5 7 3 6 3 3 3 4 4 2 5 3 6 2 6 5 7 5 4 4 1 5 5 6 1 5 4 5 8 12 10 14 6 13 13
23 18 16 5 2 2 8 8 6 7 3 3 4 4 5 6 3 3 3 2 2 4 5 7 5 2 4 1 3 5 2 3 2 2 3 6 6 5 6 8 8 9 12 9 11
26 19 12 2 1 8 9 8 6 7 4 3 6 6 4 3 3 5 2 1 1 3 3 5 6 3 2 2 5 4 4 7 6 3 4 4 5 4 3 3 6 11 17 13 13
28 22 5 1 5 4 7 6 7 3 7 2 5 5 5 5 4 6 5 2 2 3 4 5 7 5 7 6 7 10 8 5 6 7 5 3 5 6 2 5 5 13 12 12 9
30 21 5 5 5 6 5 7 3 4 5 3 5 3 4 2 2 1 3 1 8 4 4 2 6 6 8 2 4 1 7 6 2 2 5 5 4 3 3 7 13 12 12 10 8
24 5 4 6 5 4 7 4 6 3 5 6 6 7 7 7 4 5 6 5 6 6 5 4 5 6 8 5 2 5 2 4 4 3 3 2 3 4 7 11 10 9 8 9 12
5 5 5 7 5 6 7 4 4 4 3 5 6 5 3 7 8 7 6 5 3 7 4 4 4 3 7 5 5 5 3 6 5 3 4 2 2 4 6 6 8 9 12 13 13
4 5 6 7 6 7 3 6 6 6 2 3 2 2 2 1 3 3 2 2 4 3 7 2 4 7 4 2 4 6 4 4 5 5 5 1 5 4 7 4 8 10 12 13 13
4 3 5 5 5 2 3 4 5 10 4 4 3 4 2 3 3 4 3 2 1 1 2 0 4 2 5 6 1 4 3 4 6 5 3 4 5 5 4 7 11 15 13 10 11
4 4 6 6 2 4 6 4 2 5 3 2 3 4 4 2 4 3 5 3 1 4 2 0 3 4 10 9 7 5 7 4 4 4 3 5 5 1 5 12 10 12 10 10 9
3 5 6 6 1 2 5 4 7 9 4 3 3 6 6 6 3 2 5 5 4 3 4 8 3 6 6 6 5 7 10 6 5 3 5 5 5 4 8 12 9 7 5 8 7
2 4 3 4 6 6 3 4 3 6 6 9 6 6 4 6 6 6 5 3 5 0 3 5 2 2 5 5 4 5 9 8 4 8 6 5 6 3 7 9 6 6 7 7 6
2 3 6 4 4 6 5 4 6 3 3 6 5 6 8 5 2 3 4 3 2 1 3 3 2 2 4 5 6 6 9 5 6 5 11 16 9 4 6 6 5 5 6 6 8
4 4 4 5 5 5 3 6 9 1 3 6 5 4 6 2 2 4 4 4 5 6 4 4 4 3 5 5 5 5 7 13 12 11 6 7 3 4 4 4 2 4 6 6 4
Wind_Direction
316 313 313 313 309 307 308 309 308 306 309 311 319 319 321 321 309 150 242 221 190 244 358 285 301 318 126 263 198 136 69 299 264 252 237 233 190 140 156 108 104 207 143 152 150
314 307 302 302 303 303 303 302 303 308 314 319 321 317 322 331 307 262 238 201 197 227 270 311 306 10 334 251 282 107 119 231 208 231 190 216 186 139 141 141 186 133 120 139 148
325 315 308 306 303 301 301 303 305 309 314 322 320 313 319 318 319 255 259 180 198 211 262 327 341 240 261 53 281 168 219 271 264 265 165 188 295 104 134 160 159 152 144 152 151
330 323 317 312 307 303 302 301 302 305 313 323 315 317 316 223 302 269 149 180 182 224 306 351 25 19 337 333 273 306 276 250 274 181 137 168 181 161 183 182 161 155 157 146 157
332 327 319 312 306 304 302 301 301 305 314 321 318 332 12 1 253 255 156 184 162 206 216 33 337 134 243 242 324 205 265 265 235 146 156 130 146 141 135 159 165 153 118 118 130
333 325 317 312 308 304 301 299 298 301 312 317 318 322 2 290 243 209 177 159 234 190 168 148 223 226 244 252 187 275 282 310 182 105 99 116 175 80 163 163 167 169 130 133 132
335 327 321 313 309 304 298 294 292 297 303 301 296 296 278 237 268 216 173 214 212 193 247 208 202 35 316 320 301 287 315 16 352 195 151 113 15 165 177 171 173 153 144 138 138
341 330 320 315 309 301 297 291 287 288 286 277 251 222 255 266 175 274 220 296 283 247 225 274 196 39 109 294 347 353 46 15 293 214 266 117 231 237 176 143 172 133 149 144 152
348 337 329 321 310 305 295 283 279 282 242 224 179 144 273 312 238 233 170 235 299 313 272 289 57 212 6 47 3 11 280 309 307 202 177 134 219 198 187 167 191 159 159 154 143
352 343 334 322 311 309 296 268 309 314 175 196 271 354 285 265 227 195 204 225 254 344 353 21 50 21 5 71 229 264 349 299 264 281 167 178 193 178 205 182 194 171 166 157 157
353 347 337 324 315 318 338 11 24 11 246 203 205 224 278 288 33 228 221 334 4 39 261 320 81 252 245 217 245 220 233 235 289 339 71 66 67 238 250 257 214 196 167 160 147
349 345 336 322 304 292 289 135 226 187 302 229 243 246 261 249 307 284 133 188 150 248 344 5 237 239 227 280 224 241 4 338 316 341 84 137 134 34 347 295 230 202 139 139 145
345 340 334 322 313 168 203 231 242 54 316 292 208 204 227 169 246 288 137 197 231 309 274 183 261 162 179 14 11 42 73 16 75 327 17 44 10 19 6 21 21 356 175 159 155
343 337 331 320 63 325 268 283 297 151 51 278 190 254 192 159 310 199 196 136 345 315 335 327 322 22 41 61 76 45 307 44 32 62 273 47 256 12 328 6 23 7 75 131 143
340 336 329 290 255 322 252 319 307 56 25 225 220 218 145 143 175 270 190 103 278 283 67 269 293 252 85 206 50 226 308 31 349 55 111 340 89 258 359 353 342 4 45 40 56
335 335 331 76 330 244 311 315 52 46 266 247 157 185 156 229 223 215 192 46 240 297 8 286 290 114 98 32 58 303 19 38 37 56 35 251 113 323 12 273 312 66 68 62 65
331 326 304 326 243 322 349 37 44 119 309 33 194 174 194 218 253 191 163 242 158 40 318 354 348 351 33 17 7 53 51 344 360 8 233 204 47 238 357 7 76 115 108 103 96
325 318 218 222 252 18 38 49 65 270 299 31 351 153 197 205 211 123 139 16 24 59 64 90 337 17 330 285 225 109 133 155 251 244 264 4 126 188 146 120 110 125 128 137 187
318 332 320 262 221 84 67 57 214 293 322 350 353 47 357 358 109 45 78 37 33 22 110 41 299 330 12 352 52 312 340 188 125 5 70 220 330 318 78 67 78 84 79 73 87
342 341 279 274 106 69 73 238 265 316 354 22 41 46 47 3 26 18 49 337 111 37 87 328 343 310 303 1 10 79 248 37 19 29 311 290 237 214 104 126 114 97 89 91 92
30 17 262 347 72 53 146 233 291 288 118 97 148 28 6 74 67 39 25 336 28 37 76 62 110 286 8 29 273 343 34 61 123 145 205 259 266 230 157 156 115 91 88 87 77
12 2 286 33 46 60 157 219 300 280 35 2 81 57 61 67 59 55 139 185 260 352 82 232 138 309 268 280 89 134 143 110 116 270 215 148 271 357 93 99 81 89 88 83 86
358 273 311 80 70 315 300 316 315 325 46 66 72 58 38 51 40 354 158 230 37 79 125 224 26 9 345 351 1 18 339 122 143 89 220 149 232 25 93 71 69 105 102 102 92
25 356 328 31 122 101 5 342 346 337 14 65 65 71 28 353 51 308 353 37 56 93 103 84 104 148 193 231 222 312 326 286 140 153 222 220 172 219 75 96 87 63 69 99 91
66 269 210 332 338 331 61 324 1 352 8 23 46 67 55 34 18 9 18 105 30 309 57 93 176 221 238 262 311 294 311 301 265 228 166 223 131 113 123 124 135 134 117 105 97
50 33 348 286 314 1 357 337 328 324 36 11 59 72 81 95 110 308 332 11 204 85 98 15 255 328 274 273 302 304 296 62 19 47 64 83 68 71 101 100 88 76 102 84 57
314 331 105 299 352 32 342 304 313 78 50 119 91 65 73 98 209 255 251 253 213 173 194 127 120 68 276 338 333 11 339 85 76 51 71 67 46 157 108 99 107 78 74 81 85